KUIPER-00246

导读 | 豆包AI

KUIPER-00246是美国亚马逊柯伊伯(Project Kuiper)卫星互联网项目的一颗量产低轨通信卫星,于2025年12月15日发射升空。 该卫星属于计划部署的3236颗低轨卫星星座的组成部分,运行于近地轨道,旨在为全球尤其是未覆盖区域提供高速低延迟、可负担的卫星互联网接入,同时可结合亚马逊云服务,支持企业、物联网与应急通信等场景,是星座组网部署阶段的重要卫星之一。

Basic Information
目录编号:
67151
目录名称:
KUIPER-00246
国际标识:
2025-301U
轨道中心:
EARTH
卫星名称:
KUIPER-00246
卫星全名:
KUIPER-00246
卫星状态:
在轨 (已飞行161 天)
发射日期:
2025-12-15 UTC
国别 :
美国 (US)
星等 :
--
Orbit Information
数据来源 国际轨道数据 AOE轨道数据
星历时间 2026-05-24T11:42:46+0800
1天前
查看轨道信息
2026-05-19T03:00:00+0800
6天前
查看轨道信息
半长轴 7007.607km 7007.69km
偏心率 0.0000889 0.000056
轨道倾角 51.899° 51.899°
近地点辐角 66.019° 66.352°
升交点赤经 94.403° 118.121°
平近点角 294.087° 143.344°
近地点 628.847km 629.16km
远地点 630.093km 629.946km
周期 97.300分钟 97.302分钟
每日圈数 14.799539 14.799277
Detailed Information
使用方式:
暂无
2D Orbit Map
3D Orbit Map
Orbit Altitude Analysis Chart
Orbit Inclination Analysis Chart
Orbit Comprehensive Analysis Chart
View Comprehensive Chart